| time (UTC) | temp F | wind direction | speed MPH | gust MPH | rain 1hr in | rain 24hr in | rain mn in | humidity % | barometer mb |
| 20260906193039 | 61 | 90 | 0.0 | 0.0 | 0.00 | 0.00 | 0.00 | 41 | 1027.4 |
| 20260906192036 | 62 | 67 | 0.0 | 0.0 | 0.00 | 0.00 | 0.00 | 40 | 1027.3 |
| 20260906191035 | 63 | 83 | 0.0 | 0.0 | 0.00 | 0.00 | 0.00 | 41 | 1027.4 |
| 20260906190133 | 63 | 90 | 0.0 | 0.0 | 0.00 | 0.00 | 0.00 | 41 | 1027.3 |
| 20260906185134 | 63 | 111 | 0.0 | 0.0 | 0.00 | 0.00 | 0.00 | 41 | 1027.4 |
| 20260906183234 | 64 | 112 | 0.0 | 0.0 | 0.00 | 0.00 | 0.00 | 41 | 1027.6 |
| 20260906182234 | 66 | 112 | 0.0 | 0.0 | 0.00 | 0.00 | 0.00 | 42 | 1027.7 |
| 20260906180235 | 68 | 112 | 0.0 | 0.0 | 0.00 | 0.00 | 0.00 | 42 | 1027.7 |
| 20260906175234 | 67 | 138 | 0.0 | 0.0 | 0.00 | 0.00 | 0.00 | 42 | 1027.8 |
| 20260906174232 | 68 | 116 | 0.0 | 0.0 | 0.00 | 0.00 | 0.00 | 42 | 1027.8 |
| 20260906172236 | 67 | 119 | 0.0 | 0.0 | 0.00 | 0.00 | 0.00 | 42 | 1027.8 |
| 20260906171235 | 67 | 126 | 0.0 | 0.0 | 0.00 | 0.00 | 0.00 | 42 | 1028.0 |
| 20260906170334 | 68 | 124 | 0.0 | 0.0 | 0.00 | 0.00 | 0.00 | 43 | 1027.9 |
| 20260906165335 | 68 | 180 | 0.0 | 0.0 | 0.00 | 0.00 | 0.00 | 43 | 1028.1 |
| 20260906163435 | 68 | 119 | 0.0 | 0.0 | 0.00 | 0.00 | 0.00 | 43 | 1028.2 |
| 20260906162435 | 68 | 115 | 0.0 | 0.0 | 0.00 | 0.00 | 0.00 | 42 | 1028.4 |
| 20260906161435 | 68 | 145 | 0.0 | 0.0 | 0.00 | 0.00 | 0.00 | 42 | 1028.3 |
| 20260906160434 | 68 | 183 | 0.0 | 0.0 | 0.00 | 0.00 | 0.00 | 42 | 1028.4 |
| 20260906155436 | 67 | 169 | 0.0 | 0.0 | 0.00 | 0.00 | 0.00 | 43 | 1028.4 |
| 20260906153435 | 68 | 130 | 0.0 | 0.0 | 0.00 | 0.00 | 0.00 | 44 | 1028.7 |
| 20260906152533 | 68 | 187 | 0.0 | 0.0 | 0.00 | 0.00 | 0.00 | 43 | 1028.8 |
| 20260906151536 | 68 | 132 | 0.0 | 0.0 | 0.00 | 0.00 | 0.00 | 42 | 1028.9 |
| 20260906145634 | 68 | 195 | 0.0 | 0.0 | 0.00 | 0.00 | 0.00 | 43 | 1029.3 |
| 20260906144633 | 68 | 116 | 0.0 | 0.0 | 0.00 | 0.00 | 0.00 | 43 | 1029.3 |
| 20260906143634 | 69 | 203 | 0.0 | 0.0 | 0.00 | 0.00 | 0.00 | 43 | 1029.3 |
| 20260906142636 | 69 | 180 | 0.0 | 0.0 | 0.00 | 0.00 | 0.00 | 43 | 1029.4 |
| 20260906140635 | 68 | 186 | 0.0 | 0.0 | 0.00 | 0.00 | 0.00 | 43 | 1029.7 |
| 20260906135635 | 68 | 178 | 0.0 | 0.0 | 0.00 | 0.00 | 0.00 | 43 | 1029.8 |
| 20260906134634 | 68 | 202 | 0.0 | 0.0 | 0.00 | 0.00 | 0.00 | 42 | 1029.8 |
| 20260906133635 | 67 | 197 | 0.0 | 0.0 | 0.00 | 0.00 | 0.00 | 42 | 1029.8 |
| 20260906132635 | 68 | 197 | 0.0 | 0.0 | 0.00 | 0.00 | 0.00 | 42 | 1029.9 |
| 20260906131733 | 68 | 164 | 0.0 | 0.0 | 0.00 | 0.00 | 0.00 | 42 | 1030.0 |
| 20260906130736 | 67 | 189 | 0.0 | 0.0 | 0.00 | 0.00 | 0.00 | 42 | 1030.1 |
| 20260906125834 | 67 | 196 | 0.0 | 0.0 | 0.00 | 0.00 | 0.00 | 42 | 1030.3 |
| 20260906124835 | 67 | 186 | 0.0 | 0.0 | 0.00 | 0.00 | 0.00 | 40 | 1030.5 |
| 20260906123835 | 67 | 191 | 0.0 | 0.0 | 0.00 | 0.00 | 0.00 | 42 | 1030.4 |
| 20260906122835 | 67 | 117 | 0.0 | 0.0 | 0.00 | 0.00 | 0.00 | 41 | 1030.5 |
| 20260906121833 | 66 | 118 | 0.0 | 0.0 | 0.00 | 0.00 | 0.00 | 41 | 1030.6 |
| 20260906120835 | 66 | 116 | 0.0 | 0.0 | 0.00 | 0.00 | 0.00 | 41 | 1030.6 |
| 20260906115835 | 65 | 134 | 0.0 | 0.0 | 0.00 | 0.00 | 0.00 | 41 | 1030.8 |
| 20260906113934 | 66 | 119 | 0.0 | 0.0 | 0.00 | 0.00 | 0.00 | 41 | 1031.1 |
| 20260906112933 | 66 | 197 | 0.0 | 0.0 | 0.00 | 0.00 | 0.00 | 41 | 1031.2 |
| 20260906111033 | 65 | 126 | 0.0 | 0.0 | 0.00 | 0.00 | 0.00 | 41 | 1031.4 |
| 20260906104136 | 66 | 162 | 0.0 | 0.0 | 0.00 | 0.00 | 0.00 | 40 | 1031.5 |
| 20260906102135 | 66 | 202 | 0.0 | 0.0 | 0.00 | 0.00 | 0.00 | 38 | 1031.4 |
| 20260906101137 | 66 | 225 | 0.0 | 0.0 | 0.00 | 0.00 | 0.00 | 40 | 1031.5 |
| 20260906095236 | 63 | 202 | 0.0 | 0.0 | 0.00 | 0.00 | 0.00 | 40 | 1032.0 |
| 20260906093334 | 63 | 206 | 0.0 | 0.0 | 0.00 | 0.00 | 0.00 | 41 | 1031.9 |
| 20260906092333 | 63 | 212 | 0.0 | 0.0 | 0.00 | 0.00 | 0.00 | 41 | 1031.7 |
| 20260906091335 | 62 | 180 | 0.0 | 0.0 | 0.00 | 0.00 | 0.00 | 41 | 1031.7 |
| 20260906090434 | 61 | 214 | 0.0 | 0.0 | 0.00 | 0.00 | 0.00 | 42 | 1031.7 |
| 20260906085434 | 60 | 202 | 0.0 | 0.0 | 0.00 | 0.00 | 0.00 | 42 | 1031.7 |
| 20260906084434 | 60 | 202 | 0.0 | 0.0 | 0.00 | 0.00 | 0.00 | 43 | 1031.7 |
| 20260906083437 | 59 | 205 | 0.0 | 0.0 | 0.00 | 0.00 | 0.00 | 42 | 1031.7 |
| 20260906082534 | 58 | 202 | 0.0 | 0.0 | 0.00 | 0.00 | 0.00 | 43 | 1031.7 |
| 20260906080534 | 56 | 202 | 0.0 | 0.0 | 0.00 | 0.00 | 0.00 | 44 | 1031.7 |
| 20260906074537 | 53 | 180 | 0.0 | 0.0 | 0.00 | 0.00 | 0.00 | 46 | 1031.7 |
| 20260906073533 | 52 | 180 | 0.0 | 0.0 | 0.00 | 0.00 | 0.00 | 46 | 1032.0 |
| 20260906072535 | 51 | 112 | 0.0 | 0.0 | 0.00 | 0.00 | 0.00 | 47 | 1031.7 |
| 20260906071633 | 50 | 180 | 0.0 | 0.0 | 0.00 | 0.00 | 0.00 | 47 | 1031.8 |
| 20260906070634 | 50 | 185 | 0.0 | 0.0 | 0.00 | 0.00 | 0.00 | 47 | 1031.7 |
| 20260906065733 | 49 | 112 | 0.0 | 0.0 | 0.00 | 0.00 | 0.00 | 47 | 1031.4 |
| 20260906064734 | 48 | 112 | 0.0 | 0.0 | 0.00 | 0.00 | 0.00 | 48 | 1031.6 |
| 20260906063735 | 47 | 112 | 0.0 | 0.0 | 0.00 | 0.00 | 0.00 | 48 | 1031.5 |
| 20260906062733 | 47 | 112 | 0.0 | 0.0 | 0.00 | 0.00 | 0.00 | 48 | 1031.5 |
| 20260906061735 | 47 | 112 | 0.0 | 0.0 | 0.00 | 0.00 | 0.00 | 48 | 1031.2 |
| 20260906055736 | 46 | 112 | 0.0 | 0.0 | 0.00 | 0.00 | 0.00 | 48 | 1031.0 |
| 20260906054833 | 46 | 112 | 0.0 | 0.0 | 0.00 | 0.00 | 0.00 | 48 | 1031.1 |
| 20260906053852 | 47 | 90 | 0.0 | 0.0 | 0.00 | 0.00 | 0.00 | 48 | 1031.0 |
| 20260906052834 | 47 | 112 | 0.0 | 0.0 | 0.00 | 0.00 | 0.00 | 48 | 1030.9 |
| 20260906051855 | 47 | 103 | 0.0 | 0.0 | 0.00 | 0.00 | 0.00 | 48 | 1031.1 |
| 20260906050835 | 47 | 90 | 0.0 | 0.0 | 0.00 | 0.00 | 0.00 | 48 | 1031.2 |
| 20260906045834 | 46 | 90 | 0.0 | 0.0 | 0.00 | 0.00 | 0.00 | 47 | 1031.2 |
| 20260906044835 | 46 | 105 | 0.0 | 0.0 | 0.00 | 0.00 | 0.00 | 47 | 1031.0 |
| 20260906043850 | 47 | 112 | 0.0 | 0.0 | 0.00 | 0.00 | 0.00 | 47 | 1031.1 |
| 20260906042935 | 46 | 112 | 0.0 | 0.0 | 0.00 | 0.00 | 0.00 | 47 | 1031.1 |
| 20260906041936 | 47 | 112 | 0.0 | 0.0 | 0.00 | 0.00 | 0.00 | 47 | 1031.1 |
| 20260906040035 | 47 | 202 | 0.0 | 0.0 | 0.00 | 0.00 | 0.00 | 47 | 1031.2 |
| 20260906034033 | 47 | 202 | 0.0 | 0.0 | 0.00 | 0.00 | 0.00 | 46 | 1031.5 |
| 20260906033037 | 47 | 202 | 0.0 | 0.0 | 0.00 | 0.00 | 0.00 | 47 | 1031.3 |
| 20260906032054 | 47 | 247 | 0.0 | 0.0 | 0.00 | 0.00 | 0.00 | 47 | 1031.4 |
| 20260906031035 | 47 | 247 | 0.0 | 0.0 | 0.00 | 0.00 | 0.00 | 47 | 1031.4 |
| 20260906030035 | 47 | 247 | 0.0 | 0.0 | 0.00 | 0.00 | 0.00 | 46 | 1031.3 |
| 20260906024051 | 48 | 247 | 0.0 | 0.0 | 0.00 | 0.00 | 0.00 | 46 | 1031.1 |
| 20260906023051 | 49 | 247 | 0.0 | 0.0 | 0.00 | 0.00 | 0.00 | 46 | 1031.0 |
| 20260906022035 | 49 | 247 | 0.0 | 0.0 | 0.00 | 0.00 | 0.00 | 46 | 1031.0 |
| 20260906021036 | 50 | 247 | 0.0 | 0.0 | 0.00 | 0.00 | 0.00 | 46 | 1031.1 |
| 20260906020035 | 51 | 247 | 0.0 | 0.0 | 0.00 | 0.00 | 0.00 | 45 | 1031.2 |
| 20260906015035 | 51 | 247 | 0.0 | 0.0 | 0.00 | 0.00 | 0.00 | 45 | 1031.2 |
| 20260906014034 | 51 | 232 | 0.0 | 0.0 | 0.00 | 0.00 | 0.00 | 45 | 1031.3 |
| 20260906013036 | 51 | 228 | 0.0 | 0.0 | 0.00 | 0.00 | 0.00 | 45 | 1031.3 |
| 20260906012034 | 51 | 228 | 0.0 | 0.0 | 0.00 | 0.00 | 0.00 | 45 | 1031.1 |
| 20260906011033 | 50 | 242 | 0.0 | 0.0 | 0.00 | 0.00 | 0.00 | 44 | 1031.0 |
| 20260906005035 | 49 | 270 | 0.0 | 0.0 | 0.00 | 0.00 | 0.00 | 45 | 1031.0 |
| 20260906003037 | 50 | 225 | 0.0 | 0.0 | 0.00 | 0.00 | 0.00 | 45 | 1031.0 |
| 20260906002034 | 51 | 270 | 0.0 | 0.0 | 0.00 | 0.00 | 0.00 | 45 | 1031.0 |
| 20260906001034 | 51 | 268 | 0.0 | 0.0 | 0.00 | 0.00 | 0.00 | 45 | 1031.0 |
| 20260906000036 | 51 | 247 | 0.0 | 0.0 | 0.00 | 0.00 | 0.00 | 45 | 1030.7 |
| 20260905234034 | 51 | 234 | 0.0 | 0.0 | 0.00 | 0.00 | 0.00 | 45 | 1030.7 |
| 20260905233035 | 51 | 247 | 0.0 | 0.0 | 0.00 | 0.00 | 0.00 | 43 | 1030.7 |
| 20260905232036 | 51 | 270 | 0.0 | 0.0 | 0.00 | 0.00 | 0.00 | 44 | 1030.8 |
| 20260905231035 | 52 | 270 | 0.0 | 0.0 | 0.00 | 0.00 | 0.00 | 43 | 1030.5 |
| 20260905230035 | 52 | 270 | 0.0 | 0.0 | 0.00 | 0.00 | 0.00 | 44 | 1030.3 |
| 20260905200456 | 57 | 273 | 0.0 | 0.0 | 0.00 | 0.00 | 0.00 | 42 | 1029.7 |
| 20260905195549 | 57 | 273 | 0.0 | 0.0 | 0.00 | 0.00 | 0.00 | 42 | 1029.7 |
| 20260905194645 | 57 | 273 | 0.0 | 0.0 | 0.00 | 0.00 | 0.00 | 42 | 1029.7 |
| 20260905193722 | 57 | 273 | 0.0 | 0.0 | 0.00 | 0.00 | 0.00 | 42 | 1029.7 |